Washington State Current Weather Observations

 
 ASUS46 KSEW 170110
 RWRWA 
 
 WASHINGTON REGIONAL WEATHER ROUNDUP
 NATIONAL WEATHER SERVICE SEATTLE WA
 600 PM PDT MON OCT 16 2017
 
 NOTE:"FAIR" INDICATES FEW OR NO CLOUDS BELOW 12,000 FEET WITH NO 
 SIGNIFICANT WEATHER AND/OR OBSTRUCTIONS TO VISIBILITY.
 
 WAZ507-509-555>559-170200-
 SEATTLE, TACOMA, EVERETT, AND VICINITY
   
 CITY           SKY/WX    TMP DP  RH WIND       PRES   REMARKS
 EVERETT        CLOUDY    57  46  66 SE10      30.13F                  
 BOEING FIELD   CLOUDY    59  47  64 S6        30.13F                  
 RENTON         MOCLDY    60  49  66 SE9       30.13F                  
 SEATAC AIRPORT MOCLDY    58  47  66 S9        30.13F                  
 JBLM-MCCHORD   CLEAR     59  51  73 W8        30.15F                  
 PUYALLUP       FAIR      61  50  67 CALM      30.15S                  
 BREMERTON      MOCLDY    55  47  74 SW13      30.13F                  
 JBLM-FT LEWIS  CLEAR     60  51  74 S6        30.14F                  
 TACOMA NARROWS PTCLDY    56  47  71 SW8       30.14F                  
 
WAZ001-503-506-510-514-515-170200- NORTH INTERIOR CITY SKY/WX TMP DP RH WIND PRES REMARKS BELLINGHAM LGT RAIN 53 51 93 S5 30.11F FOG FRIDAY HARBOR CLOUDY 50 50 100 CALM 30.12F FOG EASTSOUND LGT RAIN 52 50 93 S7G15 30.11F PORT ANGELES CLOUDY 54 47 77 SE7 30.11F EDIZ HOOK CLOUDY 51 47 87 E8 30.11F PORT TOWNSEND CLOUDY 55 48 76 CALM 30.12F NAS WHIDBEY CLOUDY 55 49 80 E6 30.15F ARLINGTON CLOUDY 58 48 69 SE5 30.14F BURLINGTON CLOUDY 54 52 94 CALM 30.13F
WAZ020-022-039-040-504-511-512-170200- SOUTHWEST INTERIOR CITY SKY/WX TMP DP RH WIND PRES REMARKS SHELTON CLOUDY 57 47 69 SW10 30.13F OLYMPIA CLEAR 58 48 69 SW6 30.15F CHEHALIS FAIR 59 52 77 N5 30.16F KELSO CLEAR 60 50 69 NW5 30.17F VANCOUVER CLEAR 63 50 62 W3 30.14F SCAPPOOSE, OR CLEAR 62 48 60 CALM 30.15F PORTLAND, OR PTCLDY 65 47 52 CALM 30.15F
WAZ021-516-517-170200- WASHINGTON COAST CITY SKY/WX TMP DP RH WIND PRES REMARKS FORKS LGT RAIN 52 51 97 SE7 30.12F FOG HOQUIAM CLOUDY 56 50 80 SE5 30.17F ASTORIA, OR CLEAR 56 46 69 W3 30.17F
WAZ019-023-024-040-567>569-170200- CASCADE MOUNTAINS AND COLUMBIA GORGE CITY SKY/WX TMP DP RH WIND PRES REMARKS STAMPEDE PASS PTCLDY 51 37 58 VRB5 30.16F TROUTDALE, OR CLEAR 64 47 53 CALM 30.14F HOOD RIVER, OR CLEAR 63 39 42 CALM 30.12F THE DALLES, OR CLEAR 66 42 41 NW6 30.10F
WAZ026-027-041>044-520-521-170200- EAST SLOPES CITY SKY/WX TMP DP RH WIND PRES REMARKS OMAK PTCLDY 62 36 37 S9 30.04F WENATCHEE CLEAR 56 40 55 E9 30.06F ELLENSBURG CLEAR 62 41 46 E3 30.08F YAKIMA CLEAR 61 38 42 SE3 30.09F SUNNYSIDE ARPT CLEAR 61 40 46 CALM 30.09S YAKIMA TC FAIR 60 32 35 SW3 30.07F
WAZ028-034-035-170200- COLUMBIA BASIN CITY SKY/WX TMP DP RH WIND PRES REMARKS EPHRATA CLEAR 57 32 38 CALM 30.08F MOSES LAKE CLEAR 60 35 39 S6 30.08F PASCO CLEAR 63 43 48 NW7 30.08F RICHLAND ARPT CLEAR 62 41 45 NW6 30.08F HERMISTON, OR CLEAR 62 38 40 S7 30.08F
WAZ036>038-170200- NORTHEAST WASHINGTON CITY SKY/WX TMP DP RH WIND PRES REMARKS SPOKANE GEIGER PTCLDY 58 31 35 S6 30.13F SPOKANE FELTS CLEAR 60 32 34 SW6 30.12F FAIRCHILD AFB CLEAR 56 30 38 S5 30.12F COEURDALENE,ID CLEAR 56 34 43 S6 30.13F DEER PARK CLEAR 57 33 40 S8 30.11F
WAZ029>033-170200- SOUTHEAST WASHINGTON CITY SKY/WX TMP DP RH WIND PRES REMARKS PULLMAN CLEAR 56 35 45 SE5 30.16F LEWISTON, ID CLEAR 64 34 32 SW3 30.13F WALLA WALLA CLEAR 67 38 34 SW3 30.11F PENDLETON, OR CLEAR 67 32 27 N3 30.11F HAZE

Data from: http://www.wrh.noaa.gov/sew/get.php?pil=RWR&sid=WA&version=0&format=printer

Current Observations

Current Weather Conditions by Major Highway
Washington State Current Weather Observations   …  Oregon State Current Weather Observation



48 Hour Forecast


Seattle  …  Vancouver  …  Portland
————————————————————————————————————————
Bend  …  Spokane  …  Richland  …  Pendleton  …  Blue Mountains I-84  …  Yakima
————————————————————————————————————————
Goldendale, Washington Higher Elevations  …  Dallesport Airport - Goldendale  …  Bingen - White Salmon - Hood River  …  Index





Top of Page